ANA988 RJCC-RJTT

Flight info

Callsign ANA988
Flight time 1h 18m
Altitude 38000
Route JUGGL1 TOBBY Y10 GODIN GODI1D
Aircraft A321/M-SDE2FGHIJ4LORVWXY/LB1D1

Departure

Time 2026-02-22 06:31
Airport New Chitose Airport (RJCC)

Arrival

Time 2026-02-22 07:49
Airport Tokyo Haneda International Airport (RJTT)
Time Latitude Longitude Altitude Speed Heading
2026-02-22 06:10 42.79034 141.67826 61 ft 0 kts 172°
2026-02-22 06:22 42.79037 141.67826 68 ft 1 kts 172°
2026-02-22 06:23 42.79054 141.67823 59 ft 3 kts 172°
2026-02-22 06:23 42.79081 141.67818 63 ft 3 kts 172°
2026-02-22 06:23 42.79100 141.67814 68 ft 3 kts 162°
2026-02-22 06:23 42.79117 141.67803 61 ft 3 kts 131°
2026-02-22 06:24 42.79124 141.67789 65 ft 3 kts 108°
2026-02-22 06:24 42.79127 141.67766 66 ft 2 kts 84°
2026-02-22 06:24 42.79127 141.67762 68 ft 0 kts 82°
2026-02-22 06:26 42.79128 141.67776 60 ft 6 kts 82°
2026-02-22 06:26 42.79146 141.67859 65 ft 10 kts 47°
2026-02-22 06:27 42.79207 141.67874 62 ft 9 kts
2026-02-22 06:27 42.79262 141.67907 63 ft 12 kts 58°
2026-02-22 06:27 42.79254 141.68060 61 ft 17 kts 103°
2026-02-22 06:27 42.79210 141.68212 65 ft 17 kts 116°
2026-02-22 06:28 42.79140 141.68346 67 ft 18 kts 129°
2026-02-22 06:28 42.79052 141.68460 63 ft 18 kts 144°
2026-02-22 06:28 42.78947 141.68537 60 ft 12 kts 151°
2026-02-22 06:28 42.78938 141.68608 66 ft 7 kts 78°
2026-02-22 06:29 42.78943 141.68674 65 ft 7 kts 98°
2026-02-22 06:29 42.78918 141.68721 59 ft 6 kts 141°
2026-02-22 06:29 42.78887 141.68754 68 ft 5 kts 141°
2026-02-22 06:29 42.78855 141.68789 68 ft 6 kts 141°
2026-02-22 06:30 42.78812 141.68816 59 ft 8 kts 167°
2026-02-22 06:30 42.78738 141.68831 64 ft 20 kts 172°
2026-02-22 06:30 42.78357 141.68898 67 ft 93 kts 173°
2026-02-22 06:30 42.77503 141.69049 66 ft 151 kts 172°
2026-02-22 06:31 42.76437 141.69237 686 ft 146 kts 172°
2026-02-22 06:31 42.75458 141.69421 1444 ft 141 kts 171°
2026-02-22 06:31 42.74502 141.69619 2108 ft 141 kts 171°
2026-02-22 06:31 42.73535 141.69820 2763 ft 140 kts 173°
2026-02-22 06:32 42.72569 141.70018 3352 ft 143 kts 174°
2026-02-22 06:32 42.71517 141.70230 3668 ft 163 kts 174°
2026-02-22 06:32 42.70321 141.70469 3908 ft 185 kts 174°
2026-02-22 06:32 42.68975 141.70738 4298 ft 204 kts 173°
2026-02-22 06:33 42.67567 141.71024 5132 ft 205 kts 173°
2026-02-22 06:33 42.66144 141.71313 5945 ft 209 kts 173°
2026-02-22 06:33 42.64689 141.71606 6725 ft 213 kts 173°
2026-02-22 06:33 42.63212 141.71903 7528 ft 216 kts 173°
2026-02-22 06:34 42.61705 141.72091 8329 ft 218 kts 179°
2026-02-22 06:34 42.60178 141.72179 9124 ft 221 kts 180°
2026-02-22 06:34 42.58631 141.72269 9904 ft 224 kts 180°
2026-02-22 06:34 42.57066 141.72358 10659 ft 227 kts 181°
2026-02-22 06:35 42.55417 141.72447 10947 ft 251 kts 181°
2026-02-22 06:35 42.53559 141.72539 11010 ft 284 kts 181°
2026-02-22 06:35 42.51487 141.72643 11011 ft 317 kts 181°
2026-02-22 06:35 42.49182 141.72762 11003 ft 345 kts 180°
2026-02-22 06:36 42.46737 141.72897 10999 ft 355 kts 180°
2026-02-22 06:36 42.44260 141.73041 11004 ft 357 kts 180°
2026-02-22 06:36 42.41776 141.73190 10998 ft 357 kts 180°
2026-02-22 06:36 42.39294 141.73341 10991 ft 357 kts 180°
2026-02-22 06:37 42.36809 141.73487 10998 ft 357 kts 180°
2026-02-22 06:37 42.34327 141.73629 10998 ft 357 kts 180°
2026-02-22 06:37 42.31848 141.73768 10993 ft 357 kts 180°
2026-02-22 06:37 42.29368 141.73905 10998 ft 357 kts 180°
2026-02-22 06:38 42.26891 141.74043 10998 ft 357 kts 180°
2026-02-22 06:38 42.24409 141.74184 11006 ft 358 kts 180°
2026-02-22 06:38 42.21894 141.74324 11617 ft 363 kts 180°
2026-02-22 06:38 42.19364 141.74462 12453 ft 365 kts 181°
2026-02-22 06:39 42.16811 141.74603 13192 ft 369 kts 181°
2026-02-22 06:39 42.14229 141.74748 13892 ft 373 kts 181°
2026-02-22 06:39 42.11653 141.74891 14549 ft 377 kts 181°
2026-02-22 06:39 42.09011 141.75039 15184 ft 381 kts 181°
2026-02-22 06:40 42.06346 141.75188 15801 ft 386 kts 181°
2026-02-22 06:40 42.03651 141.75337 16400 ft 390 kts 181°
2026-02-22 06:40 42.00928 141.75490 16988 ft 394 kts 181°
2026-02-22 06:40 41.98175 141.75644 17561 ft 398 kts 181°
2026-02-22 06:41 41.95396 141.75800 18132 ft 401 kts 182°
2026-02-22 06:41 41.92595 141.75955 18676 ft 405 kts 182°
2026-02-22 06:41 41.89757 141.76134 19201 ft 410 kts 181°
2026-02-22 06:41 41.86896 141.76377 19708 ft 414 kts 180°
2026-02-22 06:42 41.84005 141.76659 20207 ft 418 kts 180°
2026-02-22 06:42 41.81128 141.76956 20697 ft 422 kts 180°
2026-02-22 06:42 41.78182 141.77257 21174 ft 426 kts 180°
2026-02-22 06:42 41.75216 141.77553 21643 ft 430 kts 180°
2026-02-22 06:43 41.72217 141.77840 22092 ft 434 kts 180°
2026-02-22 06:43 41.69198 141.78121 22534 ft 437 kts 180°
2026-02-22 06:43 41.66151 141.78397 22983 ft 440 kts 181°
2026-02-22 06:43 41.63082 141.78672 23419 ft 444 kts 181°
2026-02-22 06:44 41.59983 141.78948 23838 ft 447 kts 181°
2026-02-22 06:44 41.56863 141.79228 24238 ft 451 kts 181°
2026-02-22 06:44 41.53721 141.79517 24633 ft 454 kts 181°
2026-02-22 06:44 41.50576 141.79529 25017 ft 451 kts 189°
2026-02-22 06:45 41.47478 141.78939 25408 ft 448 kts 197°
2026-02-22 06:45 41.44482 141.77968 25811 ft 450 kts 199°
2026-02-22 06:45 41.41437 141.76968 26205 ft 452 kts 199°
2026-02-22 06:45 41.38373 141.75966 26600 ft 454 kts 199°
2026-02-22 06:46 41.35297 141.74966 26953 ft 456 kts 199°
2026-02-22 06:46 41.32218 141.73969 27438 ft 454 kts 199°
2026-02-22 06:46 41.29154 141.72978 27936 ft 452 kts 199°
2026-02-22 06:47 41.23061 141.71001 28881 ft 449 kts 199°
2026-02-22 06:47 41.20027 141.70017 29351 ft 447 kts 199°
2026-02-22 06:47 41.17005 141.69039 29806 ft 446 kts 199°
2026-02-22 06:47 41.13994 141.68067 30253 ft 444 kts 199°
2026-02-22 06:48 41.10999 141.67103 30714 ft 443 kts 200°
2026-02-22 06:48 41.08013 141.66141 31180 ft 441 kts 200°
2026-02-22 06:48 41.05041 141.65183 31642 ft 439 kts 200°
2026-02-22 06:48 41.02119 141.64244 32099 ft 437 kts 200°
2026-02-22 06:49 40.99173 141.63296 32559 ft 435 kts 200°
2026-02-22 06:49 40.96233 141.62350 33006 ft 433 kts 200°
2026-02-22 06:49 40.93312 141.61408 33456 ft 431 kts 201°
2026-02-22 06:49 40.90408 141.60471 33894 ft 429 kts 201°
2026-02-22 06:50 40.87511 141.59543 34330 ft 427 kts 201°
2026-02-22 06:50 40.84626 141.58623 34723 ft 426 kts 201°
2026-02-22 06:50 40.81750 141.57704 35106 ft 425 kts 201°
2026-02-22 06:50 40.78872 141.56787 35446 ft 425 kts 201°
2026-02-22 06:51 40.75998 141.55873 35772 ft 425 kts 201°
2026-02-22 06:51 40.73125 141.54960 36108 ft 424 kts 201°
2026-02-22 06:51 40.70256 141.54047 36430 ft 424 kts 201°
2026-02-22 06:51 40.67388 141.53134 36726 ft 424 kts 201°
2026-02-22 06:52 40.64522 141.52222 37012 ft 424 kts 202°
2026-02-22 06:52 40.61659 141.51313 37324 ft 423 kts 202°
2026-02-22 06:52 40.58807 141.50407 37650 ft 421 kts 202°
2026-02-22 06:52 40.55963 141.49503 37939 ft 420 kts 202°
2026-02-22 06:53 40.53123 141.48600 38019 ft 419 kts 202°
2026-02-22 06:53 40.47479 141.46808 38027 ft 416 kts 202°
2026-02-22 06:54 40.41844 141.45016 38025 ft 417 kts 202°
2026-02-22 06:54 40.36208 141.43238 38026 ft 417 kts 202°
2026-02-22 06:55 40.30565 141.41466 38026 ft 417 kts 202°
2026-02-22 06:55 40.24964 141.39708 38030 ft 417 kts 202°
2026-02-22 06:56 40.19322 141.37937 38030 ft 417 kts 202°
2026-02-22 06:56 40.13679 141.36173 38028 ft 417 kts 202°
2026-02-22 06:57 40.08033 141.34404 38032 ft 417 kts 202°
2026-02-22 06:57 40.02390 141.32639 38034 ft 417 kts 202°
2026-02-22 06:58 39.96746 141.30858 38027 ft 417 kts 203°
2026-02-22 06:58 39.91123 141.29000 38018 ft 417 kts 203°
2026-02-22 06:59 39.85485 141.27119 38019 ft 418 kts 203°
2026-02-22 06:59 39.79841 141.25251 38024 ft 419 kts 203°
2026-02-22 07:00 39.74221 141.23408 38032 ft 419 kts 203°
2026-02-22 07:00 39.68564 141.21573 38032 ft 419 kts 203°
2026-02-22 07:01 39.62910 141.19731 38035 ft 419 kts 203°
2026-02-22 07:01 39.57258 141.17885 38036 ft 419 kts 203°
2026-02-22 07:02 39.51600 141.16047 38034 ft 419 kts 203°
2026-02-22 07:02 39.45943 141.14203 38033 ft 419 kts 203°
2026-02-22 07:03 39.40321 141.12398 38031 ft 420 kts 202°
2026-02-22 07:03 39.34627 141.10680 38032 ft 421 kts 202°
2026-02-22 07:04 39.28920 141.08995 38033 ft 421 kts 202°
2026-02-22 07:04 39.23211 141.07291 38035 ft 421 kts 202°
2026-02-22 07:05 39.17507 141.05576 38036 ft 421 kts 202°
2026-02-22 07:05 39.11805 141.03861 38035 ft 421 kts 202°
2026-02-22 07:06 39.06102 141.02145 38036 ft 421 kts 202°
2026-02-22 07:06 39.00397 141.00443 38032 ft 421 kts 202°
2026-02-22 07:07 38.94683 140.98739 38028 ft 422 kts 202°
2026-02-22 07:07 38.88965 140.97026 38025 ft 422 kts 202°
2026-02-22 07:08 38.83236 140.95317 38029 ft 422 kts 202°
2026-02-22 07:08 38.77504 140.93616 38033 ft 423 kts 202°
2026-02-22 07:09 38.71807 140.91935 38039 ft 423 kts 202°
2026-02-22 07:09 38.66068 140.90233 38041 ft 424 kts 202°
2026-02-22 07:10 38.60318 140.88525 38042 ft 424 kts 202°
2026-02-22 07:10 38.54573 140.86832 38043 ft 424 kts 202°
2026-02-22 07:11 38.48814 140.85134 38044 ft 424 kts 202°
2026-02-22 07:11 38.43059 140.83438 38048 ft 424 kts 202°
2026-02-22 07:12 38.37300 140.81743 38049 ft 425 kts 202°
2026-02-22 07:12 38.31537 140.80050 37941 ft 424 kts 202°
2026-02-22 07:12 38.28660 140.79214 37325 ft 424 kts 201°
2026-02-22 07:13 38.25788 140.78379 36685 ft 424 kts 201°
2026-02-22 07:13 38.22954 140.77551 36056 ft 423 kts 201°
2026-02-22 07:13 38.20075 140.76709 35366 ft 424 kts 201°
2026-02-22 07:13 38.17190 140.75864 34630 ft 426 kts 200°
2026-02-22 07:14 38.14304 140.75020 34189 ft 425 kts 200°
2026-02-22 07:14 38.11406 140.74173 34011 ft 429 kts 200°
2026-02-22 07:14 38.08485 140.73318 34057 ft 433 kts 200°
2026-02-22 07:15 38.02591 140.71608 34054 ft 435 kts 200°
2026-02-22 07:15 37.96681 140.69894 34046 ft 437 kts 200°
2026-02-22 07:16 37.90744 140.68176 34048 ft 438 kts 200°
2026-02-22 07:16 37.84791 140.66460 34045 ft 438 kts 200°
2026-02-22 07:17 37.79851 140.65033 34044 ft 438 kts 200°
2026-02-22 07:17 37.73903 140.63312 34042 ft 438 kts 200°
2026-02-22 07:18 37.67959 140.61593 34045 ft 438 kts 200°
2026-02-22 07:18 37.62009 140.59878 34041 ft 439 kts 200°
2026-02-22 07:19 37.56090 140.58181 34042 ft 439 kts 200°
2026-02-22 07:19 37.50134 140.56471 34044 ft 439 kts 200°
2026-02-22 07:20 37.44177 140.54763 34044 ft 439 kts 200°
2026-02-22 07:20 37.38220 140.53064 34046 ft 439 kts 200°
2026-02-22 07:21 37.32258 140.51360 34045 ft 439 kts 200°
2026-02-22 07:21 37.26292 140.49654 34033 ft 439 kts 200°
2026-02-22 07:22 37.20326 140.47955 34038 ft 440 kts 200°
2026-02-22 07:22 37.14353 140.46261 34036 ft 440 kts 200°
2026-02-22 07:22 37.11362 140.45412 33306 ft 443 kts 200°
2026-02-22 07:23 37.08388 140.44568 32385 ft 443 kts 199°
2026-02-22 07:23 37.05386 140.43719 31627 ft 443 kts 199°
2026-02-22 07:23 37.02367 140.42865 30873 ft 445 kts 198°
2026-02-22 07:23 36.99344 140.42010 30075 ft 447 kts 198°
2026-02-22 07:24 36.96299 140.41147 29192 ft 450 kts 198°
2026-02-22 07:24 36.93246 140.40281 28322 ft 450 kts 198°
2026-02-22 07:24 36.90189 140.39415 27384 ft 450 kts 197°
2026-02-22 07:24 36.87116 140.38545 26362 ft 452 kts 197°
2026-02-22 07:25 36.84083 140.37694 24878 ft 444 kts 196°
2026-02-22 07:25 36.81013 140.36832 23757 ft 459 kts 196°
2026-02-22 07:25 36.77891 140.35954 22543 ft 458 kts 195°
2026-02-22 07:25 36.74837 140.35105 21312 ft 444 kts 195°
2026-02-22 07:26 36.71827 140.34343 20083 ft 439 kts 193°
2026-02-22 07:26 36.68834 140.33701 18825 ft 433 kts 192°
2026-02-22 07:26 36.65879 140.33139 17569 ft 426 kts 191°
2026-02-22 07:26 36.62977 140.32616 16666 ft 417 kts 191°
2026-02-22 07:27 36.60143 140.32100 16310 ft 415 kts 191°
2026-02-22 07:27 36.57294 140.31561 16120 ft 413 kts 191°
2026-02-22 07:27 36.54457 140.31005 16030 ft 412 kts 192°
2026-02-22 07:27 36.51622 140.30436 16055 ft 413 kts 192°
2026-02-22 07:28 36.48786 140.29859 16054 ft 413 kts 192°
2026-02-22 07:28 36.46052 140.29034 16051 ft 392 kts 202°
2026-02-22 07:28 36.43706 140.27560 16051 ft 367 kts 215°
2026-02-22 07:28 36.41776 140.25565 16055 ft 358 kts 227°
2026-02-22 07:29 36.40263 140.23134 16053 ft 356 kts 239°
2026-02-22 07:29 36.39210 140.20361 16054 ft 356 kts 251°
2026-02-22 07:29 36.38583 140.17391 16055 ft 356 kts 256°
2026-02-22 07:29 36.38007 140.14405 16053 ft 356 kts 255°
2026-02-22 07:30 36.37422 140.11414 16054 ft 356 kts 255°
2026-02-22 07:30 36.36833 140.08444 16052 ft 348 kts 255°
2026-02-22 07:30 36.36235 140.05607 16055 ft 335 kts 250°
2026-02-22 07:30 36.35146 140.03089 16052 ft 332 kts 232°
2026-02-22 07:31 36.33449 140.01156 16056 ft 333 kts 214°
2026-02-22 07:31 36.31313 140.00019 16056 ft 338 kts 195°
2026-02-22 07:31 36.28964 139.99704 16054 ft 341 kts 186°
2026-02-22 07:31 36.26590 139.99548 16055 ft 341 kts 186°
2026-02-22 07:32 36.24217 139.99399 16053 ft 341 kts 186°
2026-02-22 07:32 36.21846 139.99252 16053 ft 341 kts 186°
2026-02-22 07:32 36.19474 139.99105 16053 ft 341 kts 186°
2026-02-22 07:32 36.17105 139.98976 15956 ft 339 kts 186°
2026-02-22 07:33 36.14794 139.98856 15413 ft 335 kts 186°
2026-02-22 07:33 36.12473 139.98736 14734 ft 332 kts 186°
2026-02-22 07:33 36.10174 139.98618 14091 ft 329 kts 186°
2026-02-22 07:33 36.07898 139.98499 13448 ft 326 kts 186°
2026-02-22 07:34 36.05649 139.98382 12822 ft 322 kts 186°
2026-02-22 07:34 36.03420 139.98270 12198 ft 319 kts 186°
2026-02-22 07:34 36.01218 139.98162 11576 ft 315 kts 186°
2026-02-22 07:34 35.99094 139.98060 11301 ft 291 kts 186°
2026-02-22 07:35 35.97129 139.97971 10724 ft 277 kts 186°
2026-02-22 07:35 35.95224 139.97880 9977 ft 271 kts 186°
2026-02-22 07:35 35.93356 139.97800 9196 ft 267 kts 182°
2026-02-22 07:35 35.91561 139.98358 8412 ft 271 kts 155°
2026-02-22 07:36 35.90163 139.99917 7622 ft 277 kts 127°
2026-02-22 07:36 35.89511 140.02160 7042 ft 286 kts 99°
2026-02-22 07:36 35.89454 140.04636 6684 ft 290 kts 92°
2026-02-22 07:36 35.89469 140.07122 6305 ft 289 kts 94°
2026-02-22 07:37 35.89110 140.09516 5925 ft 281 kts 116°
2026-02-22 07:37 35.88085 140.11506 5555 ft 271 kts 139°
2026-02-22 07:37 35.86597 140.12837 5174 ft 260 kts 160°
2026-02-22 07:37 35.84890 140.13400 4801 ft 251 kts 179°
2026-02-22 07:38 35.83157 140.13484 4411 ft 248 kts 181°
2026-02-22 07:38 35.81439 140.13559 4076 ft 245 kts 181°
2026-02-22 07:38 35.79743 140.13637 4009 ft 244 kts 180°
2026-02-22 07:38 35.78043 140.13715 4009 ft 245 kts 180°
2026-02-22 07:39 35.76339 140.13793 4012 ft 245 kts 180°
2026-02-22 07:39 35.74659 140.13872 4018 ft 246 kts 180°
2026-02-22 07:39 35.72948 140.14040 4018 ft 248 kts 171°
2026-02-22 07:39 35.71313 140.14756 4006 ft 252 kts 155°
2026-02-22 07:40 35.69900 140.16055 4002 ft 257 kts 140°
2026-02-22 07:40 35.68611 140.17589 4006 ft 257 kts 140°
2026-02-22 07:40 35.67323 140.19111 3999 ft 257 kts 141°
2026-02-22 07:40 35.65997 140.20576 4004 ft 253 kts 148°
2026-02-22 07:41 35.64530 140.21590 4000 ft 232 kts 162°
2026-02-22 07:41 35.63067 140.22212 4018 ft 214 kts 169°
2026-02-22 07:41 35.61640 140.22391 4022 ft 203 kts 186°
2026-02-22 07:41 35.60269 140.22030 4017 ft 201 kts 202°
2026-02-22 07:42 35.59061 140.21178 4011 ft 201 kts 219°
2026-02-22 07:42 35.57536 140.18316 4021 ft 207 kts 252°
2026-02-22 07:42 35.57384 140.16538 4019 ft 212 kts 265°
2026-02-22 07:43 35.57392 140.14725 4033 ft 211 kts 265°
2026-02-22 07:43 35.57385 140.12920 4023 ft 211 kts 265°
2026-02-22 07:43 35.57367 140.11121 4020 ft 211 kts 264°
2026-02-22 07:43 35.57347 140.09322 4015 ft 211 kts 264°
2026-02-22 07:44 35.57326 140.07519 3970 ft 212 kts 264°
2026-02-22 07:44 35.57306 140.05739 3711 ft 211 kts 264°
2026-02-22 07:44 35.57285 140.03943 3465 ft 210 kts 264°
2026-02-22 07:44 35.57265 140.02183 3202 ft 203 kts 264°
2026-02-22 07:45 35.57245 140.00472 2930 ft 196 kts 263°
2026-02-22 07:45 35.57227 139.98864 2706 ft 182 kts 263°
2026-02-22 07:45 35.57211 139.97404 2518 ft 160 kts 263°
2026-02-22 07:45 35.57195 139.96113 2338 ft 145 kts 262°
2026-02-22 07:46 35.57178 139.94901 2127 ft 140 kts 262°
2026-02-22 07:46 35.57162 139.93715 1923 ft 138 kts 262°
2026-02-22 07:46 35.57146 139.92536 1730 ft 138 kts 263°
2026-02-22 07:46 35.57130 139.91356 1524 ft 138 kts 263°
2026-02-22 07:47 35.57115 139.90175 1310 ft 138 kts 264°
2026-02-22 07:47 35.57099 139.88993 1121 ft 138 kts 264°
2026-02-22 07:47 35.57084 139.87814 1043 ft 138 kts 264°
2026-02-22 07:47 35.57067 139.86631 1006 ft 139 kts 263°
2026-02-22 07:48 35.56845 139.85510 866 ft 134 kts 238°
2026-02-22 07:48 35.56311 139.84619 675 ft 130 kts 221°
2026-02-22 07:48 35.55629 139.83899 515 ft 129 kts 216°
2026-02-22 07:48 35.54946 139.83178 331 ft 128 kts 219°
2026-02-22 07:49 35.54288 139.82449 131 ft 128 kts 221°
2026-02-22 07:49 35.53639 139.81729 31 ft 118 kts 221°
2026-02-22 07:49 35.53163 139.81198 24 ft 63 kts 222°
2026-02-22 07:49 35.52970 139.80941 23 ft 24 kts 241°
2026-02-22 07:50 35.52922 139.80808 24 ft 16 kts 248°
2026-02-22 07:50 35.52884 139.80683 24 ft 16 kts 259°
2026-02-22 07:50 35.52931 139.80575 25 ft 15 kts 327°
2026-02-22 07:50 35.53021 139.80512 26 ft 15 kts 329°
2026-02-22 07:51 35.53109 139.80446 24 ft 15 kts 329°
2026-02-22 07:51 35.53198 139.80385 24 ft 15 kts 330°
2026-02-22 07:51 35.53294 139.80319 24 ft 18 kts 331°
2026-02-22 07:51 35.53402 139.80241 24 ft 18 kts 329°
2026-02-22 07:52 35.53511 139.80163 26 ft 18 kts 330°
2026-02-22 07:52 35.53623 139.80084 24 ft 19 kts 330°
2026-02-22 07:52 35.53710 139.80029 24 ft 12 kts 350°
2026-02-22 07:52 35.53771 139.80088 27 ft 12 kts 57°
2026-02-22 07:53 35.53815 139.80169 24 ft 11 kts 51°
2026-02-22 07:53 35.53885 139.80189 24 ft 11 kts 341°
2026-02-22 07:53 35.53959 139.80139 25 ft 13 kts 329°
2026-02-22 07:53 35.54043 139.80078 24 ft 15 kts 330°
2026-02-22 07:54 35.54139 139.80013 24 ft 17 kts 330°
2026-02-22 07:54 35.54245 139.79934 26 ft 18 kts 328°
2026-02-22 07:54 35.54357 139.79854 24 ft 19 kts 331°
2026-02-22 07:54 35.54471 139.79774 24 ft 18 kts 329°
2026-02-22 07:55 35.54573 139.79699 27 ft 16 kts 329°
2026-02-22 07:55 35.54665 139.79637 25 ft 14 kts 332°
2026-02-22 07:55 35.54746 139.79582 25 ft 12 kts 329°
2026-02-22 07:55 35.54809 139.79534 25 ft 9 kts 328°
2026-02-22 07:56 35.54854 139.79500 26 ft 6 kts 329°
2026-02-22 07:56 35.54890 139.79476 24 ft 7 kts 332°
2026-02-22 07:56 35.54955 139.79432 24 ft 15 kts 330°
2026-02-22 07:56 35.55072 139.79350 24 ft 23 kts 330°
2026-02-22 07:57 35.55206 139.79255 24 ft 21 kts 331°
2026-02-22 07:57 35.55321 139.79169 27 ft 18 kts 330°
2026-02-22 07:57 35.55411 139.79105 24 ft 13 kts 330°
2026-02-22 07:57 35.55439 139.79038 24 ft 7 kts 266°
2026-02-22 07:58 35.55431 139.78991 24 ft 4 kts 267°
2026-02-22 07:58 35.55441 139.78974 24 ft 2 kts 324°
2026-02-22 07:58 35.55462 139.78959 24 ft 3 kts 330°
2026-02-22 07:58 35.55476 139.78950 24 ft 2 kts 330°
2026-02-22 07:59 35.55487 139.78942 24 ft 1 kts 330°
2026-02-22 07:59 35.55498 139.78934 24 ft 0 kts 330°